[[{"header":{"parameterUnit":"m.s-1","parameterCategory":1,"la1":30.2991,"la2":30.254,"lo1":-89.0895,"lo2":-89.0444,"dy":0.0017,"dx":0.0017,"nx":28,"ny":28,"refTime":"2023-09-09T09:00:00:Z","depth":0,"parameterNumber":2,"parameterNumberName":"U-component_of_WINDS"},"data":[0,0,0,0,0,0,0,0,0,0,0,0,0,0,0,0,0,0,0,0,0,0,0,0,0,0,0,0,0,0,0,0,0,0,0,0,0,0,0,0,0,0,0,0,0,0,0,0,0,0,0,0,0,0,0,0,0,0,0.7121,0.7122,0,0.7197,0.7197,0.7198,0.7222,0.7221,0.7221,0.7221,0.7302,0.7304,0.7307,0,0,0,0,0,0,0,0,0,0,0,0,0,0.7001,0.7003,0.7121,0.7122,0.7123,0.7196,0.7198,0.7199,0.7222,0.7221,0.7221,0.7221,0.7301,0.7304,0.7307,0,0,0,0,0,0,0,0,0,0,0,0,0,0.7063,0.7004,0.7121,0.7144,0.7146,0.7196,0.7198,0.7199,0.7222,0.7221,0.7221,0.722,0.73,0.7304,0.7307,0.7342,0,0,0.7319,0.732,0,0,0,0,0,0,0,0,0.7059,0.7067,0.7139,0.7142,0.7145,0.7199,0.7185,0.7247,0.7222,0.7193,0.7221,0.722,0.7268,0.7275,0.729,0.7345,0.7349,0.7319,0.7321,0.7323,0.7324,0,0,0,0,0,0,0,0.7055,0.7064,0.7151,0.714,0.7144,0.7151,0.7159,0.7197,0.7233,0.7196,0.7198,0.7206,0.727,0.7286,0.7292,0.735,0.7319,0.7322,0.7325,0.7326,0.7437,0.7438,0,0,0,0,0,0,0.7046,0.706,0.7149,0.7153,0.71,0.7154,0.7163,0.7183,0.7233,0.724,0.7207,0.7207,0.728,0.7288,0.7295,0.7338,0.7323,0.7326,0.7329,0.7436,0.7437,0.7438,0,0,0,0,0,0,0.7044,0.7054,0.7146,0.7107,0.712,0.7156,0.7178,0.7184,0.7201,0.7241,0.7248,0.7216,0.728,0.729,0.733,0.7342,0.7328,0.7332,0.7436,0.7437,0.7438,0.7425,0,0,0,0,0,0,0.704,0.7053,0.7065,0.7107,0.7122,0.7178,0.7179,0.7186,0.7207,0.7208,0.7252,0.7259,0.728,0.7324,0.7333,0.7346,0.7335,0.7435,0.7436,0.7437,0.7425,0.7426,0.7426,0,0,0,0,0,0.7036,0.706,0.7066,0.7077,0.7138,0.7178,0.7187,0.721,0.7208,0.7221,0.7247,0.7257,0.7339,0.7328,0.7339,0.7353,0.7434,0.7436,0.7437,0.7424,0.7425,0.7426,0,0,0,0,0,0,0.702,0.7066,0.7073,0.7111,0.714,0.7182,0.72,0.721,0.7242,0.7242,0.7271,0.7281,0.7318,0.734,0.7327,0.7389,0.7387,0.7391,0.7373,0.7375,0.7376,0.737,0.7338,0,0,0,0,0,0.702,0.7048,0.7088,0.7117,0.7132,0.7163,0.7182,0.7197,0.7229,0.7242,0.7271,0.7302,0.7335,0.7356,0.7389,0.7428,0.7438,0.7443,0.7444,0.7445,0.7448,0.747,0.7473,0.7443,0.7443,0.7443,0,0,0.7023,0.7051,0.7067,0.7115,0.7139,0.7169,0.7174,0.7204,0.7227,0.7247,0.7286,0.7308,0.7346,0.7385,0.7404,0.7404,0.7458,0.7447,0.7447,0.745,0.7472,0.7475,0.7477,0.7444,0.7444,0.7444,0,0,0.7041,0.7065,0.7093,0.7117,0.7154,0.7174,0.7181,0.7221,0.7236,0.7275,0.7291,0.7318,0.7374,0.74,0.742,0.7448,0.746,0.7458,0.7463,0.7484,0.7487,0.7489,0.7499,0.7502,0.7461,0.7461,0.7461,0,0.7039,0.7083,0.7106,0.7136,0.7156,0.7175,0.7203,0.7226,0.7272,0.7286,0.7286,0.7355,0.7382,0.7428,0.7434,0.745,0.7459,0.7453,0.7484,0.7487,0.7489,0.7499,0.7503,0.7461,0.7461,0.7461,0.7461,0,0.7079,0.7109,0.7127,0.7169,0.7192,0.7221,0.7249,0.727,0.7283,0.7304,0.7344,0.7376,0.7415,0.7427,0.7441,0.7475,0.7474,0.7478,0.7477,0.7491,0.7501,0.7505,0.746,0.746,0.746,0.7461,0,0,0.709,0.7144,0.715,0.7169,0.7211,0.7235,0.7265,0.7302,0.7319,0.735,0.7377,0.7423,0.7427,0.745,0.7467,0.7486,0.7506,0.7488,0.749,0.749,0.7545,0.7541,0.7545,0.7513,0.7514,0.7515,0.7542,0,0.7114,0.7167,0.7189,0.7232,0.7261,0.7278,0.7305,0.7334,0.7354,0.7382,0.7405,0.7437,0.744,0.7454,0.7474,0.7499,0.7517,0.7498,0.7539,0.754,0.7529,0.7551,0.7547,0.7571,0.7546,0.7547,0.7547,0,0.7149,0.7179,0.7225,0.7263,0.7275,0.7298,0.7334,0.736,0.7393,0.7407,0.7432,0.7448,0.7481,0.7477,0.7524,0.751,0.7528,0.7543,0.7545,0.755,0.7544,0.7556,0.7579,0.7583,0.7553,0.7553,0.7552,0,0.7152,0.7204,0.7238,0.7254,0.7299,0.7315,0.7335,0.7367,0.7388,0.7419,0.7433,0.7468,0.7488,0.7515,0.754,0.7535,0.7584,0.7582,0.7597,0.7596,0.7607,0.7606,0.7633,0.7618,0.7618,0.7618,0.7618,0,0.7177,0.7205,0.724,0.7261,0.7293,0.7317,0.7348,0.7369,0.7398,0.7424,0.7442,0.7467,0.7498,0.7527,0.7547,0.7582,0.7591,0.7603,0.7608,0.7602,0.76,0.7614,0.7613,0.7619,0.7619,0.7619,0.7618,0,0.7186,0.7211,0.7249,0.7288,0.7299,0.732,0.7354,0.7376,0.7397,0.7429,0.7439,0.7472,0.7506,0.7534,0.758,0.7593,0.763,0.7636,0.7618,0.7621,0.7634,0.7632,0.7671,0.7678,0.7658,0.7658,0.7658,0,0.72,0.7221,0.7262,0.728,0.7299,0.7329,0.7349,0.7375,0.7396,0.7435,0.7452,0.7487,0.7517,0.7571,0.76,0.7635,0.7642,0.7653,0.7648,0.764,0.7642,0.764,0.7643,0.7654,0.7654,0.7654,0.7654,0,0.7222,0.7233,0.7262,0.7295,0.7319,0.7346,0.7374,0.7388,0.7419,0.7442,0.7477,0.75,0.7545,0.758,0.7618,0.764,0.7652,0.7656,0.7661,0.7654,0.7643,0.7649,0.762,0.7655,0.7655,0.7655,0.7655,0.7655,0.7234,0.7254,0.7285,0.7317,0.734,0.7366,0.7388,0.7411,0.744,0.7478,0.7492,0.7527,0.756,0.7612,0.7634,0.7663,0.7664,0.7671,0.7673,0.7675,0.7674,0.7638,0.767,0.767,0.767,0.767,0.767,0,0.7257,0.7278,0.7307,0.7345,0.7369,0.7378,0.7409,0.743,0.746,0.7489,0.7518,0.7558,0.7592,0.7623,0.7659,0.7676,0.7682,0.7684,0.7683,0.7688,0.7671,0.7663,0.7678,0.7678,0.7678,0.7678,0.7678,0.7678,0.7272,0.7306,0.732,0.7366,0.7387,0.7421,0.7439,0.7463,0.7486,0.7529,0.7557,0.7576,0.7607,0.7645,0.7676,0.7685,0.7697,0.7697,0.7707,0.7691,0.7689,0.7688,0.7681,0.77,0.77,0.7722,0.7722,0.7723]},{"header":{"parameterUnit":"m.s-1","parameterCategory":1,"la1":30.2991,"la2":30.254,"lo1":-89.0895,"lo2":-89.0444,"dy":0.0017,"dx":0.0017,"nx":28,"ny":28,"refTime":"2023-09-09T09:00:00:Z","depth":0,"parameterNumber":3,"parameterNumberName":"V-component_of_WINDS"},"data":[0,0,0,0,0,0,0,0,0,0,0,0,0,0,0,0,0,0,0,0,0,0,0,0,0,0,0,0,0,0,0,0,0,0,0,0,0,0,0,0,0,0,0,0,0,0,0,0,0,0,0,0,0,0,0,0,0,0,1.0612,1.0613,0,1.0726,1.0727,1.0728,1.0672,1.0669,1.0666,1.0663,1.078,1.0786,1.0792,0,0,0,0,0,0,0,0,0,0,0,0,0,1.0342,1.0347,1.0612,1.0613,1.0615,1.0726,1.0727,1.0729,1.0672,1.0669,1.0665,1.0662,1.0778,1.0785,1.0792,0,0,0,0,0,0,0,0,0,0,0,0,0,1.0458,1.0349,1.0611,1.06,1.06,1.0725,1.0727,1.0729,1.0673,1.0669,1.0664,1.066,1.0776,1.0784,1.0793,1.0937,0,0,1.082,1.0824,0,0,0,0,0,0,0,0,1.0451,1.0468,1.06,1.0601,1.0601,1.068,1.0675,1.0799,1.0674,1.0645,1.0663,1.0658,1.075,1.0761,1.0792,1.0942,1.0947,1.0821,1.0826,1.083,1.0833,0,0,0,0,0,0,0,1.0443,1.0462,1.0657,1.0602,1.0603,1.0588,1.0599,1.0698,1.0722,1.0648,1.0644,1.0658,1.075,1.0784,1.0795,1.0949,1.0821,1.0829,1.0834,1.0837,1.1215,1.122,0,0,0,0,0,0,1.0436,1.0456,1.0653,1.066,1.0514,1.0596,1.0609,1.0659,1.072,1.0725,1.0662,1.0655,1.0771,1.0784,1.0799,1.0965,1.083,1.0838,1.0843,1.121,1.1216,1.1221,0,0,0,0,0,0,1.043,1.0454,1.0649,1.0557,1.0581,1.0606,1.0662,1.0664,1.0698,1.0731,1.0735,1.0692,1.0768,1.0786,1.0901,1.0969,1.0842,1.085,1.1205,1.1212,1.1219,1.1304,0,0,0,0,0,0,1.0423,1.0452,1.0508,1.0559,1.0586,1.0751,1.0667,1.0669,1.0713,1.0705,1.0761,1.0766,1.0766,1.0888,1.091,1.0979,1.0857,1.1199,1.1208,1.1216,1.1295,1.1313,1.1328,0,0,0,0,0,1.0413,1.0529,1.0512,1.0536,1.0656,1.0755,1.077,1.0768,1.0719,1.0774,1.0794,1.0764,1.0959,1.0901,1.0925,1.0997,1.1194,1.1205,1.1216,1.1287,1.1309,1.1328,0,0,0,0,0,0,1.0488,1.0536,1.0517,1.0653,1.07,1.0745,1.0815,1.0793,1.0855,1.0845,1.084,1.0853,1.0971,1.0996,1.0931,1.1135,1.1068,1.1084,1.1115,1.1136,1.1152,1.1142,1.0864,0,0,0,0,0,1.052,1.0596,1.0634,1.075,1.0775,1.0791,1.0834,1.0828,1.0877,1.0897,1.0926,1.0974,1.1045,1.1092,1.116,1.1299,1.1307,1.136,1.1376,1.139,1.1403,1.1471,1.1494,1.1256,1.1256,1.1256,0,0,1.0587,1.0623,1.0672,1.0766,1.0802,1.0879,1.0808,1.0895,1.0951,1.091,1.1018,1.1041,1.1094,1.122,1.1277,1.1244,1.147,1.1403,1.1414,1.142,1.1485,1.1507,1.1527,1.1263,1.1262,1.1261,0,0,1.0748,1.0785,1.0883,1.0919,1.0973,1.0982,1.1006,1.1054,1.1067,1.1176,1.1145,1.1211,1.1336,1.1373,1.1408,1.1578,1.155,1.1601,1.1686,1.1753,1.1772,1.1788,1.1844,1.1865,1.1614,1.1614,1.1614,0,1.0825,1.094,1.0936,1.1023,1.1063,1.1028,1.1124,1.116,1.1235,1.1262,1.1225,1.1376,1.141,1.1541,1.1581,1.1613,1.1636,1.1593,1.177,1.1786,1.1802,1.1854,1.1876,1.162,1.1619,1.1618,1.1618,0,1.1029,1.111,1.1182,1.1251,1.13,1.1393,1.1399,1.1449,1.1438,1.145,1.1559,1.1597,1.167,1.1701,1.1693,1.1829,1.1806,1.177,1.1702,1.183,1.1879,1.1899,1.1627,1.1625,1.1624,1.1622,0,0,1.1241,1.1304,1.133,1.1359,1.1414,1.1476,1.1564,1.1633,1.1674,1.1726,1.1797,1.19,1.1865,1.1905,1.19,1.1959,1.2084,1.1915,1.1916,1.1941,1.2231,1.2255,1.2279,1.2067,1.2071,1.2074,1.2224,0,1.1402,1.1556,1.1552,1.1695,1.1766,1.1731,1.1807,1.1848,1.1862,1.1923,1.1937,1.2008,1.1959,1.1982,1.204,1.2057,1.2142,1.2046,1.213,1.2133,1.2113,1.2305,1.2333,1.2473,1.2244,1.2248,1.225,0,1.1611,1.1666,1.1815,1.1854,1.1884,1.1953,1.2013,1.2073,1.2117,1.2122,1.2164,1.2148,1.2235,1.2166,1.2282,1.2217,1.2251,1.2264,1.2269,1.2274,1.2197,1.2311,1.2518,1.2538,1.2281,1.2279,1.2277,0,1.1744,1.1857,1.1958,1.1985,1.2035,1.2083,1.2106,1.2145,1.2185,1.2238,1.2263,1.2326,1.236,1.2408,1.2408,1.2359,1.2524,1.2456,1.2527,1.2527,1.2561,1.2558,1.2772,1.259,1.259,1.2589,1.2589,0,1.1922,1.2013,1.2018,1.208,1.218,1.2174,1.2272,1.229,1.2325,1.2388,1.2364,1.2423,1.2421,1.2481,1.2482,1.2575,1.2592,1.2596,1.2594,1.2596,1.2595,1.2616,1.2604,1.2595,1.2594,1.2592,1.2591,0,1.2087,1.2095,1.2202,1.2239,1.2251,1.2322,1.2353,1.241,1.242,1.25,1.2518,1.2533,1.2602,1.2607,1.2688,1.2687,1.2799,1.2789,1.2783,1.278,1.2848,1.284,1.308,1.3109,1.2912,1.2914,1.2916,0,1.2199,1.2267,1.231,1.235,1.2375,1.2441,1.248,1.2476,1.2518,1.257,1.2621,1.2687,1.2739,1.285,1.2867,1.2927,1.2915,1.2995,1.2924,1.2921,1.291,1.2905,1.2909,1.3008,1.301,1.3012,1.3013,0,1.2393,1.2392,1.245,1.2508,1.2556,1.2602,1.2645,1.2679,1.2679,1.2727,1.2796,1.2836,1.2916,1.298,1.3038,1.3059,1.3035,1.3036,1.3054,1.3055,1.3047,1.3047,1.2816,1.303,1.3028,1.3027,1.3026,1.3025,1.2532,1.2588,1.2626,1.269,1.2721,1.276,1.2814,1.2829,1.2887,1.295,1.2945,1.3019,1.3057,1.3131,1.3157,1.3214,1.3187,1.3216,1.3222,1.3228,1.3232,1.304,1.3226,1.3225,1.3225,1.3224,1.3224,0,1.272,1.2742,1.2801,1.2859,1.2909,1.2882,1.2926,1.2969,1.3035,1.3072,1.3123,1.3199,1.326,1.3281,1.3339,1.338,1.337,1.3395,1.339,1.3394,1.3256,1.3232,1.3402,1.3402,1.3402,1.3402,1.3402,1.3402,1.2824,1.2917,1.292,1.3026,1.3047,1.312,1.3147,1.3181,1.321,1.3296,1.3346,1.3359,1.3388,1.3447,1.35,1.3505,1.3525,1.3554,1.3553,1.3423,1.3405,1.3388,1.3365,1.356,1.356,1.3686,1.3687,1.3688]}]]